CW4038 Weather Reports


time (UTC)temp
C
wind
direction
speed
KPH
gust
KPH
rain 1hr
cm
rain 24hr
cm
rain mn
cm
humidity
%
barometer
mb
20200229080639 13 54 0.0 0.0 0.00 0.00 0.00 52 1016.6
20200229075738 13 54 0.0 0.0 0.00 0.00 0.00 53 1016.6
20200229074837 14 84 0.0 0.0 0.00 0.00 0.00 53 1016.9
20200229073937 14 84 0.0 0.0 0.00 0.00 0.00 55 1016.9
20200229073035 14 84 0.0 1.6 0.00 0.00 0.00 56 1016.9
20200229072135 15 83 0.0 1.6 0.00 0.00 0.00 56 1017.3
20200229071234 14 140 0.0 0.0 0.00 0.00 0.00 60 1017.2
20200229070333 14 141 0.0 0.0 0.00 0.00 0.00 62 1017.2
20200229065432 14 141 0.0 0.0 0.00 0.00 0.00 61 1017.2
20200229064531 15 141 0.0 0.0 0.00 0.00 0.00 59 1017.6
20200229063631 15 141 0.0 0.0 0.00 0.00 0.00 58 1017.6
20200229062730 15 141 0.0 0.0 0.00 0.00 0.00 58 1017.6
20200229061828 15 141 0.0 0.0 0.00 0.00 0.00 57 1017.6
20200229060927 16 141 0.0 1.6 0.00 0.00 0.00 56 1017.6
20200229060026 16 141 0.0 1.6 0.00 0.00 0.00 55 1017.5
20200229055127 16 148 0.0 1.6 0.00 0.00 0.00 54 1017.5
20200229054225 16 148 0.0 1.6 0.00 0.00 0.00 52 1017.5
20200229053323 16 148 0.0 0.0 0.00 0.00 0.00 52 1017.5
20200229052422 16 148 0.0 0.0 0.00 0.00 0.00 52 1017.5
20200229051522 17 148 0.0 1.6 0.00 0.00 0.00 52 1017.5
20200229050620 17 148 0.0 1.6 0.00 0.00 0.00 49 1017.5
20200229045719 17 160 0.0 1.6 0.00 0.00 0.00 48 1017.5
20200229044818 18 160 0.0 1.6 0.00 0.00 0.00 46 1017.5
20200229043918 18 162 1.6 1.6 0.00 0.00 0.00 46 1017.1
20200229043018 18 163 0.0 1.6 0.00 0.00 0.00 48 1017.1
20200229042116 18 166 0.0 1.6 0.00 0.00 0.00 48 1017.1
20200229041215 18 219 0.0 0.0 0.00 0.00 0.00 48 1017.1
20200229040314 18 218 0.0 0.0 0.00 0.00 0.00 45 1017.0
20200229035413 19 219 0.0 0.0 0.00 0.00 0.00 45 1017.0
20200229034513 19 218 0.0 0.0 0.00 0.00 0.00 44 1017.0
20200229033611 20 218 0.0 0.0 0.00 0.00 0.00 44 1016.7
20200229032710 20 218 0.0 0.0 0.00 0.00 0.00 42 1016.7
20200229031809 20 218 0.0 0.0 0.00 0.00 0.00 41 1016.7
20200229030908 21 218 0.0 0.0 0.00 0.00 0.00 38 1017.0
20200229030008 21 218 0.0 0.0 0.00 0.00 0.00 37 1017.0
20200229025107 22 218 0.0 3.2 0.00 0.00 0.00 36 1017.0
20200229024206 22 218 0.0 4.8 0.00 0.00 0.00 34 1016.7
20200229023305 22 228 0.0 1.6 0.00 0.00 0.00 33 1016.7
20200229022405 23 226 0.0 1.6 0.00 0.00 0.00 32 1016.8
20200229021504 23 232 0.0 0.0 0.00 0.00 0.00 32 1016.8
20200229020603 24 277 0.0 0.0 0.00 0.00 0.00 31 1016.8
20200229015702 25 277 0.0 0.0 0.00 0.00 0.00 30 1016.8
20200229014800 25 277 0.0 3.2 0.00 0.00 0.00 28 1016.9
20200229013900 26 282 3.2 4.8 0.00 0.00 0.00 28 1016.9
20200229012959 26 342 0.0 4.8 0.00 0.00 0.00 27 1016.5
20200229012058 26 340 1.6 4.8 0.00 0.00 0.00 27 1016.6
20200229011156 26 318 1.6 4.8 0.00 0.00 0.00 26 1016.6
20200229010256 27 324 3.2 4.8 0.00 0.00 0.00 26 1016.6
20200229005355 27 312 1.6 4.8 0.00 0.00 0.00 26 1016.6
20200229004454 27 334 1.6 4.8 0.00 0.00 0.00 25 1016.6
20200229003553 28 325 1.6 6.4 0.00 0.00 0.00 24 1016.6
20200229002652 28 326 3.2 6.4 0.00 0.00 0.00 22 1016.7
20200229001751 28 195 0.0 3.2 0.00 0.00 0.00 21 1017.0
20200229000850 28 297 1.6 3.2 0.00 0.00 0.00 22 1016.6
20200228235948 28 327 1.6 4.8 0.00 0.00 0.00 22 1016.6
20200228235047 28 328 1.6 4.8 0.00 0.00 0.00 21 1016.6
20200228234146 28 30 1.6 3.2 0.00 0.00 0.00 19 1016.6
20200228233245 28 52 1.6 3.2 0.00 0.00 0.00 18 1016.6
20200228232344 29 334 1.6 3.2 0.00 0.00 0.00 17 1016.9
20200228231444 30 341 1.6 3.2 0.00 0.00 0.00 16 1016.9
20200228230542 29 22 0.0 3.2 0.00 0.00 0.00 15 1016.9
20200228225641 29 0 1.6 4.8 0.00 0.00 0.00 15 1016.9
20200228224741 29 234 1.6 4.8 0.00 0.00 0.00 15 1017.3
20200228223840 30 322 1.6 4.8 0.00 0.00 0.00 16 1017.3
20200228222939 30 142 1.6 3.2 0.00 0.00 0.00 16 1017.3
20200228222038 30 158 1.6 4.8 0.00 0.00 0.00 16 1017.3
20200228221137 30 148 1.6 4.8 0.00 0.00 0.00 15 1017.3
20200228220237 30 163 3.2 6.4 0.00 0.00 0.00 17 1017.7
20200228215335 29 115 1.6 6.4 0.00 0.00 0.00 16 1018.0
20200228214434 28 148 1.6 3.2 0.00 0.00 0.00 17 1018.0
20200228213534 28 69 1.6 4.8 0.00 0.00 0.00 17 1018.0
20200228212632 29 314 1.6 4.8 0.00 0.00 0.00 18 1018.0
20200228211731 28 145 1.6 4.8 0.00 0.00 0.00 19 1018.3
20200228210831 28 31 1.6 4.8 0.00 0.00 0.00 19 1018.3
20200228205930 29 256 1.6 4.8 0.00 0.00 0.00 20 1018.7
20200228205028 28 157 1.6 4.8 0.00 0.00 0.00 21 1018.6
20200228204127 27 157 3.2 4.8 0.00 0.00 0.00 21 1019.0
20200228203226 28 0 1.6 4.8 0.00 0.00 0.00 22 1019.0
20200228202326 27 12 1.6 6.4 0.00 0.00 0.00 24 1019.3
20200228201424 26 224 3.2 8.0 0.00 0.00 0.00 26 1019.6
20200228200524 26 160 3.2 8.0 0.00 0.00 0.00 28 1019.6
20200228195622 25 172 1.6 6.4 0.00 0.00 0.00 29 1019.9
20200228194722 25 170 1.6 6.4 0.00 0.00 0.00 32 1019.9
20200228193821 25 134 1.6 4.8 0.00 0.00 0.00 31 1020.3
20200228192920 25 151 1.6 3.2 0.00 0.00 0.00 32 1020.3
20200228192019 24 128 0.0 4.8 0.00 0.00 0.00 33 1020.6
20200228191118 24 48 1.6 3.2 0.00 0.00 0.00 34 1020.6
20200228190217 23 78 1.6 1.6 0.00 0.00 0.00 36 1020.9
20200228185316 23 132 0.0 4.8 0.00 0.00 0.00 36 1020.9
20200228184415 23 138 1.6 4.8 0.00 0.00 0.00 38 1021.3
20200228183515 22 139 1.6 3.2 0.00 0.00 0.00 37 1021.3
20200228182614 22 152 0.0 4.8 0.00 0.00 0.00 39 1021.2
20200228181713 22 149 1.6 4.8 0.00 0.00 0.00 41 1021.6
20200228180812 21 146 1.6 3.2 0.00 0.00 0.00 42 1021.6
20200228175911 21 147 1.6 1.6 0.00 0.00 0.00 43 1021.6
20200228175010 20 121 0.0 3.2 0.00 0.00 0.00 45 1021.5
20200228174109 20 162 0.0 3.2 0.00 0.00 0.00 46 1021.5
20200228173208 19 192 1.6 3.2 0.00 0.00 0.00 49 1021.5
20200228172307 18 296 1.6 4.8 0.00 0.00 0.00 48 1021.5
20200228171407 18 118 0.0 4.8 0.00 0.00 0.00 50 1021.5
20200228170506 17 266 0.0 3.2 0.00 0.00 0.00 51 1021.5
20200228165605 17 316 1.6 3.2 0.00 0.00 0.00 52 1021.5
20200228164704 16 236 0.0 0.0 0.00 0.00 0.00 55 1021.5
20200228163803 15 153 0.0 0.0 0.00 0.00 0.00 60 1021.4
20200228162903 13 148 0.0 0.0 0.00 0.00 0.00 66 1021.4
20200228162001 13 148 0.0 0.0 0.00 0.00 0.00 72 1021.4
20200228161101 12 150 0.0 0.0 0.00 0.00 0.00 75 1021.1
20200228160200 12 149 0.0 0.0 0.00 0.00 0.00 76 1021.0
20200228155259 11 150 0.0 0.0 0.00 0.00 0.00 78 1021.0
20200228154358 11 149 0.0 0.0 0.00 0.00 0.00 79 1021.0
20200228153457 11 149 0.0 0.0 0.00 0.00 0.00 79 1021.0
20200228152556 11 149 0.0 0.0 0.00 0.00 0.00 79 1020.7
20200228111432 11 149 0.0 0.0 0.00 0.00 0.00 69 1019.6
20200228110531 11 149 0.0 0.0 0.00 0.00 0.00 69 1019.6
20200228105630 11 150 0.0 0.0 0.00 0.00 0.00 69 1019.6
20200228104729 11 149 0.0 0.0 0.00 0.00 0.00 68 1019.9
20200228103829 12 149 0.0 0.0 0.00 0.00 0.00 68 1019.9
20200228102927 12 149 0.0 0.0 0.00 0.00 0.00 67 1020.3
20200228102027 12 149 0.0 0.0 0.00 0.00 0.00 67 1020.3
20200228101125 12 149 0.0 0.0 0.00 0.00 0.00 67 1020.3
20200228100225 12 150 0.0 0.0 0.00 0.00 0.00 68 1020.6
20200228095325 12 155 0.0 0.0 0.00 0.00 0.00 69 1020.9
20200228094422 12 155 0.0 0.0 0.00 0.00 0.00 69 1020.9
20200228093521 12 155 0.0 0.0 0.00 0.00 0.00 68 1021.2
20200228092620 12 155 0.0 0.0 0.00 0.00 0.00 67 1020.9
20200228091719 12 155 0.0 0.0 0.00 0.00 0.00 66 1021.3
20200228090818 12 155 0.0 0.0 0.00 0.00 0.00 66 1021.3
20200228085917 13 155 0.0 0.0 0.00 0.00 0.00 65 1021.3
20200228085017 13 155 0.0 3.2 0.00 0.00 0.00 64 1021.6
20200228084115 13 155 0.0 3.2 0.00 0.00 0.00 63 1021.3
20200228083215 13 154 0.0 3.2 0.00 0.00 0.00 62 1021.3
20200228082314 13 160 1.6 1.6 0.00 0.00 0.00 62 1021.6
20200228081414 13 120 1.6 3.2 0.00 0.00 0.00 62 1021.3